period_start,C,m1,H,J0,J1,J2,J3,J4,J5,JA,JB,JC,JD,JJ,JK,JN,#
2017-05-28 00:01:05,-0.01,0.14,0.00,25.78,28.69,31.38,14.24,46.50,1016.14,2024.36,3434.01,3049.00,3485.99,599.81,589.92,17.39,0000 0000 0000 0000 000000
2017-05-28 00:06:06,-0.00,0.14,0.00,25.80,28.70,31.40,14.29,46.73,1016.14,2024.41,3434.00,3049.00,3485.99,600.15,590.38,17.44,0000 0000 0000 0000 000000
2017-05-28 00:11:07,-0.01,0.14,0.00,25.83,28.70,31.43,14.29,46.76,1016.17,2024.27,3434.00,3049.00,3485.98,600.01,590.35,17.49,0000 0000 0000 0000 000000
2017-05-28 00:16:09,0.02,0.14,0.00,25.85,28.72,31.42,14.33,46.71,1016.18,2024.21,3433.61,3048.90,3485.58,600.29,590.21,17.54,0000 0000 0000 0000 000000
2017-05-28 00:21:10,0.01,0.14,0.00,25.88,28.73,31.43,14.26,46.51,1016.30,2024.13,3433.02,3048.58,3485.03,600.11,590.17,17.59,0000 0000 0000 0000 000000
2017-05-28 00:26:11,0.00,0.14,0.00,25.90,28.75,31.46,14.28,46.63,1016.40,2024.04,3433.00,3048.17,3485.00,600.00,590.05,17.64,0000 0000 0000 0000 000000
2017-05-28 00:31:12,0.00,0.14,0.00,25.91,28.75,31.49,14.26,46.67,1016.51,2024.02,3432.99,3048.07,3485.00,599.84,590.04,17.69,0000 0000 0000 0000 000000
2017-05-28 00:36:14,0.00,0.14,0.00,25.94,28.77,31.49,14.26,46.63,1016.52,2024.03,3432.96,3048.00,3484.98,599.97,590.10,17.74,0000 0000 0000 0000 000000
2017-05-28 00:41:15,0.01,0.14,0.00,25.96,28.79,31.52,14.25,46.73,1016.57,2024.01,3432.50,3048.00,3484.79,599.85,589.97,17.79,0000 0000 0000 0000 000000
2017-05-28 00:46:16,0.01,0.14,0.00,25.99,28.80,31.54,14.26,46.53,1016.62,2024.00,3432.07,3048.00,3484.21,599.95,590.04,17.84,0000 0000 0000 0000 000000
2017-05-28 00:51:17,0.00,0.14,0.00,26.03,28.82,31.60,14.34,46.52,1016.62,2024.00,3432.00,3047.95,3484.02,600.22,590.18,17.89,0000 0000 0000 0000 000000
2017-05-28 00:56:19,0.00,0.14,0.00,26.07,28.84,31.63,14.28,46.58,1016.62,2024.00,3432.00,3047.71,3484.00,600.11,589.93,17.94,0000 0000 0000 0000 000000
2017-05-28 01:01:20,0.01,0.14,0.00,26.09,28.86,31.60,14.18,46.62,1016.62,2023.99,3431.95,3047.14,3483.98,599.93,589.88,17.99,0000 0000 0000 0000 000000
2017-05-28 01:06:21,0.02,0.14,0.00,26.11,28.88,31.64,14.32,46.59,1016.62,2023.99,3431.41,3047.00,3483.41,599.89,589.77,18.04,0000 0000 0000 0000 000000
2017-05-28 01:11:22,0.00,0.14,0.00,26.15,28.90,31.67,14.23,46.63,1016.62,2023.98,3431.03,3047.00,3483.08,599.82,589.71,18.09,0000 0000 0000 0000 000000
2017-05-28 01:16:23,0.00,0.14,0.00,26.17,28.93,31.67,14.28,46.63,1016.63,2023.93,3431.00,3046.96,3483.00,599.98,589.65,18.14,0000 0000 0000 0000 000000
2017-05-28 01:21:25,0.01,0.14,0.00,26.20,28.96,31.71,14.24,46.62,1016.64,2023.85,3430.98,3046.57,3482.99,600.01,589.66,18.19,0000 0000 0000 0000 000000
2017-05-28 01:26:26,-0.00,0.14,0.00,26.22,28.98,31.74,14.26,46.75,1016.66,2023.76,3430.82,3046.13,3482.83,599.64,589.29,18.24,0000 0000 0000 0000 000000
2017-05-28 01:31:27,-0.02,0.14,0.00,26.26,29.01,31.77,14.28,46.65,1016.67,2023.28,3430.31,3046.01,3482.21,599.95,589.54,18.29,0000 0000 0000 0000 000000
2017-05-28 01:36:28,-0.01,0.14,0.00,26.31,29.03,31.75,14.26,46.65,1016.74,2023.04,3430.01,3045.99,3482.01,600.10,589.45,18.34,0000 0000 0000 0000 000000
2017-05-28 01:41:29,0.01,0.14,0.00,26.33,29.06,31.81,14.33,46.76,1016.71,2023.00,3430.00,3045.85,3481.97,600.45,589.98,18.39,0000 0000 0000 0000 000000
2017-05-28 01:46:30,0.03,0.14,0.00,26.36,29.08,31.83,14.23,46.71,1016.88,2023.00,3429.82,3045.37,3481.60,599.95,589.35,18.44,0000 0000 0000 0000 000000
2017-05-28 01:51:31,0.01,0.14,0.00,26.41,29.11,31.86,14.27,46.65,1017.08,2022.99,3429.21,3045.02,3481.04,600.16,589.62,18.49,0000 0000 0000 0000 000000
2017-05-28 01:56:33,0.00,0.14,0.00,26.45,29.13,31.88,14.18,46.67,1017.10,2022.97,3429.00,3045.00,3481.00,599.58,589.07,18.54,0000 0000 0000 0000 000000
2017-05-28 02:01:34,-0.01,0.14,0.00,26.49,29.16,31.92,14.22,46.63,1017.10,2022.84,3428.98,3044.95,3480.93,599.91,589.36,18.59,0000 0000 0000 0000 000000
2017-05-28 02:06:35,0.00,0.14,0.00,26.53,29.19,31.94,14.19,46.56,1017.10,2022.58,3428.77,3044.58,3480.37,599.77,589.17,18.64,0000 0000 0000 0000 000000
2017-05-28 02:11:36,-0.01,0.14,0.00,26.58,29.21,31.96,14.24,46.55,1017.10,2022.12,3428.06,3044.03,3480.00,600.08,589.19,18.69,0000 0000 0000 0000 000000
2017-05-28 02:16:38,0.00,0.14,0.00,26.61,29.24,32.00,14.27,46.64,1017.10,2022.02,3427.98,3043.99,3479.96,599.85,589.12,18.74,0000 0000 0000 0000 000000
2017-05-28 02:21:39,0.00,0.14,0.00,26.65,29.27,32.03,14.23,46.61,1017.13,2022.00,3427.93,3043.97,3479.63,600.11,589.16,18.79,0000 0000 0000 0000 000000
2017-05-28 02:26:40,0.04,0.14,0.00,26.67,29.30,32.05,14.24,46.65,1017.13,2022.00,3427.24,3043.38,3479.04,599.94,588.97,18.84,0000 0000 0000 0000 000000
2017-05-28 02:31:42,0.00,0.14,0.00,26.70,29.33,32.08,14.22,46.62,1017.13,2021.99,3427.00,3043.02,3478.98,600.05,589.03,18.89,0000 0000 0000 0000 000000
2017-05-28 02:36:43,0.01,0.14,0.00,26.75,29.36,32.13,14.31,46.66,1017.17,2021.96,3426.95,3042.99,3478.55,600.16,589.11,18.94,0000 0000 0000 0000 000000
2017-05-28 02:41:45,0.00,0.14,0.00,26.78,29.39,32.15,14.19,46.52,1017.25,2021.77,3426.34,3042.86,3478.04,599.87,588.87,18.99,0000 0000 0000 0000 000000
2017-05-28 02:46:46,-0.03,0.14,0.00,26.81,29.42,32.19,14.23,46.55,1017.24,2021.21,3426.01,3042.11,3477.98,599.86,588.69,19.04,0000 0000 0000 0000 000000
2017-05-28 02:51:47,0.00,0.14,0.00,26.84,29.45,32.20,14.18,46.58,1017.16,2021.05,3425.97,3042.00,3477.55,599.69,588.42,19.09,0000 0000 0000 0000 000000
2017-05-28 02:56:48,0.01,0.14,0.00,26.88,29.48,32.23,14.23,46.52,1017.15,2021.01,3425.58,3042.00,3477.06,600.06,588.61,19.14,0000 0000 0000 0000 000000
2017-05-28 03:01:49,0.01,0.14,0.00,26.92,29.51,32.27,14.18,46.63,1017.22,2021.00,3425.06,3041.79,3477.00,599.86,588.43,19.19,0000 0000 0000 0000 000000
2017-05-28 03:06:51,0.01,0.14,0.00,26.95,29.55,32.30,14.18,46.52,1017.50,2021.00,3425.00,3041.17,3476.94,599.75,588.45,19.24,0000 0000 0000 0000 000000
2017-05-28 03:11:52,0.01,0.15,0.00,26.98,29.58,32.33,14.16,46.56,1017.59,2020.99,3424.91,3041.01,3476.33,599.64,588.30,19.29,0000 0000 0000 0000 000000
2017-05-28 03:16:53,0.00,0.15,0.00,27.02,29.61,32.37,14.25,46.61,1017.58,2020.92,3424.17,3040.99,3476.01,600.22,588.80,19.34,0000 0000 0000 0000 000000
2017-05-28 03:21:54,-0.01,0.15,0.00,27.07,29.64,32.40,14.23,46.47,1017.59,2020.64,3424.00,3040.64,3475.89,600.16,588.77,19.39,0000 0000 0000 0000 000000
2017-05-28 03:26:56,-0.01,0.14,0.00,27.08,29.68,32.43,14.24,46.52,1017.59,2020.19,3423.81,3040.06,3475.24,599.89,588.39,19.44,0000 0000 0000 0000 000000
2017-05-28 03:31:57,-0.00,0.14,0.00,27.11,29.71,32.47,14.21,46.58,1017.59,2020.03,3423.07,3040.00,3474.99,599.77,588.26,19.49,0000 0000 0000 0000 000000
2017-05-28 03:36:59,0.01,0.15,0.00,27.15,29.74,32.50,14.23,46.48,1017.59,2020.00,3423.00,3039.89,3474.68,599.98,588.39,19.54,0000 0000 0000 0000 000000
2017-05-28 03:42:00,0.02,0.15,0.00,27.18,29.77,32.51,14.24,46.48,1017.60,2020.00,3422.89,3039.29,3474.07,600.03,588.49,19.59,0000 0000 0000 0000 000000
2017-05-28 03:47:01,0.01,0.15,0.00,27.21,29.80,32.57,14.22,46.55,1017.62,2019.99,3422.14,3039.01,3473.99,599.92,588.18,19.64,0000 0000 0000 0000 000000
2017-05-28 03:52:02,0.00,0.15,0.00,27.24,29.83,32.60,14.16,46.52,1017.67,2019.93,3422.00,3038.94,3473.71,599.68,587.93,19.69,0000 0000 0000 0000 000000
2017-05-28 03:57:03,-0.00,0.15,0.00,27.27,29.86,32.61,14.21,46.49,1017.69,2019.73,3421.91,3038.28,3473.05,599.82,587.97,19.74,0000 0000 0000 0000 000000
2017-05-28 04:02:04,-0.02,0.15,0.00,27.31,29.90,32.66,14.21,46.49,1017.81,2019.18,3421.28,3038.02,3472.99,600.01,588.08,19.79,0000 0000 0000 0000 000000
2017-05-28 04:07:06,-0.00,0.15,0.00,27.35,29.93,32.70,14.24,46.56,1017.68,2019.03,3421.00,3038.00,3472.64,599.48,587.52,19.84,0000 0000 0000 0000 000000
2017-05-28 04:12:07,0.02,0.15,0.00,27.39,29.96,32.72,14.22,46.38,1017.62,2019.00,3420.85,3037.71,3472.06,599.98,587.87,19.89,0000 0000 0000 0000 000000
2017-05-28 04:17:08,0.02,0.15,0.00,27.41,29.99,32.75,14.21,46.47,1017.63,2019.00,3420.16,3037.07,3471.99,600.03,587.93,19.94,0000 0000 0000 0000 000000
2017-05-28 04:22:09,0.00,0.15,0.00,27.45,30.03,32.78,14.15,46.48,1017.65,2018.99,3420.00,3037.00,3471.63,599.76,587.44,19.99,0000 0000 0000 0000 000000
2017-05-28 04:27:10,-0.00,0.15,0.00,27.47,30.06,32.82,14.14,46.33,1017.74,2018.84,3419.74,3036.82,3471.04,600.23,588.02,20.04,0000 0000 0000 0000 000000
2017-05-28 04:32:11,-0.02,0.15,0.00,27.50,30.10,32.84,14.26,46.48,1017.90,2018.44,3419.12,3036.18,3470.95,600.18,588.03,20.09,0000 0000 0000 0000 000000
2017-05-28 04:37:13,-0.00,0.15,0.00,27.54,30.13,32.88,14.20,46.48,1017.95,2018.05,3419.00,3036.00,3470.34,599.98,587.76,20.14,0000 0000 0000 0000 000000
2017-05-28 04:42:14,0.01,0.15,0.00,27.57,30.16,32.91,14.18,46.55,1018.00,2018.02,3418.69,3035.97,3470.00,600.09,587.90,20.19,0000 0000 0000 0000 000000
2017-05-28 04:47:15,0.02,0.15,0.00,27.59,30.19,32.95,14.20,46.40,1018.02,2018.00,3418.08,3035.48,3469.92,599.50,587.21,20.24,0000 0000 0000 0000 000000
2017-05-28 04:52:17,0.02,0.15,0.00,27.61,30.23,32.98,14.23,46.54,1017.99,2018.00,3417.97,3035.03,3469.18,600.05,587.79,20.29,0000 0000 0000 0000 000000
2017-05-28 04:57:18,0.01,0.15,0.00,27.64,30.26,33.00,14.23,46.48,1018.03,2017.97,3417.43,3034.99,3469.00,599.90,587.57,20.34,0000 0000 0000 0000 000000
2017-05-28 05:02:19,0.01,0.15,0.00,27.66,30.29,33.03,14.18,46.54,1018.06,2017.89,3417.03,3034.72,3468.80,599.97,587.63,20.39,0000 0000 0000 0000 000000
2017-05-28 05:07:20,-0.02,0.15,0.00,27.70,30.33,33.06,14.20,46.45,1018.06,2017.47,3416.98,3034.08,3468.08,600.26,587.77,20.44,0000 0000 0000 0000 000000
2017-05-28 05:12:21,-0.02,0.15,0.00,27.72,30.36,33.09,14.20,46.49,1018.08,2017.16,3416.58,3034.00,3468.00,599.78,587.25,20.50,0000 0000 0000 0000 000000
2017-05-28 05:17:22,0.00,0.15,0.00,27.75,30.39,33.13,14.15,46.69,1018.06,2017.02,3416.01,3033.89,3467.75,599.83,587.28,20.55,0000 0000 0000 0000 000000
2017-05-28 05:22:23,0.02,0.15,0.00,27.78,30.42,33.15,14.24,46.55,1018.06,2017.00,3415.97,3033.27,3467.11,600.22,587.48,20.60,0000 0000 0000 0000 000000
2017-05-28 05:27:25,0.01,0.15,0.00,27.81,30.46,33.18,14.27,46.67,1018.08,2016.99,3415.33,3033.01,3466.98,600.21,587.64,20.65,0000 0000 0000 0000 000000
2017-05-28 05:32:26,0.01,0.15,0.00,27.83,30.49,33.21,14.23,46.57,1018.08,2016.95,3415.01,3032.96,3466.39,599.97,587.29,20.70,0000 0000 0000 0000 000000
2017-05-28 05:37:27,0.01,0.15,0.00,27.85,30.51,33.23,14.23,46.50,1018.08,2016.85,3414.86,3032.50,3466.02,600.04,587.34,20.75,0000 0000 0000 0000 000000
2017-05-28 05:42:28,-0.02,0.15,0.00,27.88,30.55,33.27,14.16,46.56,1018.08,2016.54,3414.09,3032.02,3465.97,599.95,587.26,20.80,0000 0000 0000 0000 000000
2017-05-28 05:47:30,-0.01,0.15,0.00,27.90,30.57,33.30,14.15,46.48,1018.08,2016.20,3414.00,3032.00,3465.48,600.10,587.26,20.85,0000 0000 0000 0000 000000
2017-05-28 05:52:31,0.01,0.15,0.00,27.92,30.60,33.33,14.22,46.55,1018.09,2016.01,3413.73,3031.84,3465.01,600.13,587.21,20.90,0000 0000 0000 0000 000000
2017-05-28 05:57:32,0.03,0.15,0.00,27.93,30.63,33.36,14.25,46.54,1018.08,2016.00,3413.08,3031.14,3464.93,600.06,587.13,20.95,0000 0000 0000 0000 000000
2017-05-28 06:02:34,0.01,0.15,0.00,27.97,30.66,33.38,14.20,46.44,1018.08,2016.00,3413.00,3031.01,3464.39,599.89,586.94,21.00,0000 0000 0000 0000 000000
2017-05-28 06:07:35,0.00,0.15,0.00,27.99,30.68,33.43,14.16,46.48,1018.08,2016.00,3412.79,3030.97,3464.01,599.75,586.96,21.05,0000 0000 0000 0000 000000
2017-05-28 06:12:36,0.02,0.16,0.00,28.01,30.71,33.45,14.22,46.36,1018.08,2015.97,3412.15,3030.51,3463.97,599.72,586.69,21.10,0000 0000 0000 0000 000000
2017-05-28 06:17:37,0.01,0.16,0.00,28.03,30.73,33.48,14.13,46.51,1018.09,2015.92,3412.00,3030.03,3463.45,599.50,586.38,21.15,0000 0000 0000 0000 000000
2017-05-28 06:22:38,-0.03,0.16,0.00,28.05,30.76,33.52,14.20,46.44,1018.11,2015.70,3411.99,3030.00,3463.05,599.95,586.82,21.20,0000 0000 0000 0000 000000
2017-05-28 06:27:39,-0.02,0.15,0.00,28.06,30.78,33.53,14.14,46.50,1018.10,2015.28,3411.44,3029.99,3463.00,599.70,586.63,21.25,0000 0000 0000 0000 000000
2017-05-28 06:32:41,-0.00,0.15,0.00,28.07,30.81,33.56,14.15,46.51,1018.14,2015.09,3411.02,3029.82,3462.90,599.96,586.83,21.30,0000 0000 0000 0000 000000
2017-05-28 06:37:42,0.02,0.16,0.00,28.09,30.83,33.59,14.15,46.42,1018.11,2015.01,3410.99,3029.17,3462.25,600.12,586.91,21.35,0000 0000 0000 0000 000000
2017-05-28 06:42:43,0.00,0.16,0.00,28.12,30.86,33.60,14.19,46.43,1018.11,2015.00,3410.64,3029.01,3462.01,599.86,586.51,21.40,0000 0000 0000 0000 000000
2017-05-28 06:47:44,0.01,0.16,0.00,28.15,30.88,33.61,14.22,46.42,1018.11,2015.00,3410.07,3029.00,3461.99,600.06,586.71,21.45,0000 0000 0000 0000 000000
2017-05-28 06:52:46,0.01,0.16,0.00,28.16,30.91,33.64,14.14,46.52,1018.11,2014.99,3409.99,3028.79,3461.59,599.81,586.51,21.50,0000 0000 0000 0000 000000
2017-05-28 06:57:47,0.01,0.16,0.00,28.17,30.93,33.66,14.18,46.50,1018.10,2014.97,3409.92,3028.26,3461.06,599.91,586.73,21.55,0000 0000 0000 0000 000000
2017-05-28 07:02:49,0.00,0.16,0.00,28.19,30.95,33.68,14.20,46.52,1018.11,2014.88,3409.27,3028.01,3460.99,600.47,587.15,21.60,0000 0000 0000 0000 000000
2017-05-28 07:07:49,-0.04,0.16,0.00,28.21,30.97,33.69,14.16,46.40,1018.11,2014.48,3409.01,3028.00,3460.85,599.93,586.60,21.65,0000 0000 0000 0000 000000
2017-05-28 07:12:51,-0.01,0.16,0.00,28.21,31.00,33.74,14.13,46.42,1018.23,2014.09,3408.98,3027.93,3460.22,599.71,586.41,21.70,0000 0000 0000 0000 000000
2017-05-28 07:17:52,0.02,0.16,0.00,28.22,31.02,33.75,14.21,46.50,1018.29,2014.05,3408.71,3027.47,3460.00,599.93,586.59,21.75,0000 0000 0000 0000 000000
2017-05-28 07:22:53,0.01,0.16,0.00,28.23,31.04,33.76,14.12,46.42,1018.22,2014.01,3408.08,3027.06,3459.99,599.60,586.18,21.80,0000 0000 0000 0000 000000
2017-05-28 07:27:55,0.01,0.16,0.00,28.23,31.06,33.79,14.18,46.34,1018.19,2014.00,3408.00,3027.00,3459.50,600.03,586.63,21.85,0000 0000 0000 0000 000000
2017-05-28 07:32:56,0.00,0.16,0.00,28.25,31.07,33.80,14.17,46.42,1018.11,2014.00,3407.84,3026.97,3459.05,599.78,586.34,21.90,0000 0000 0000 0000 000000
2017-05-28 07:37:58,0.02,0.16,0.00,28.26,31.10,33.82,14.17,46.42,1018.13,2013.99,3407.23,3026.66,3459.00,599.92,586.50,21.95,0000 0000 0000 0000 000000
2017-05-28 07:42:59,0.01,0.16,0.00,28.26,31.12,33.84,14.18,46.45,1018.16,2013.97,3407.01,3026.13,3458.93,599.97,586.58,22.00,0000 0000 0000 0000 000000
2017-05-28 07:48:00,0.01,0.16,0.00,28.27,31.13,33.84,14.11,46.39,1018.29,2013.94,3406.96,3026.00,3458.27,599.84,586.41,22.05,0000 0000 0000 0000 000000
2017-05-28 07:53:02,0.01,0.16,0.00,28.28,31.15,33.86,14.21,46.41,1018.36,2013.94,3406.74,3026.00,3458.05,599.84,586.58,22.10,0000 0000 0000 0000 000000
2017-05-28 07:58:03,-0.01,0.16,0.00,28.29,31.17,33.89,14.25,46.42,1018.46,2013.76,3406.08,3025.95,3458.00,600.06,586.65,22.15,0000 0000 0000 0000 000000
2017-05-28 08:03:04,-0.02,0.16,0.00,28.29,31.19,33.88,14.16,46.49,1018.47,2013.38,3406.00,3025.48,3457.90,599.99,586.73,22.20,0000 0000 0000 0000 000000
2017-05-28 08:08:06,0.01,0.16,0.00,28.30,31.20,33.93,14.14,46.42,1018.50,2013.15,3405.85,3025.05,3457.37,599.99,586.64,22.25,0000 0000 0000 0000 000000
2017-05-28 08:13:07,0.00,0.16,0.00,28.30,31.22,33.92,14.23,46.33,1018.53,2013.05,3405.14,3025.00,3457.01,600.18,586.90,22.30,0000 0000 0000 0000 000000
2017-05-28 08:18:08,0.00,0.16,0.00,28.31,31.23,33.94,14.13,46.41,1018.57,2013.03,3405.01,3025.00,3457.00,599.90,586.59,22.35,0000 0000 0000 0000 000000
2017-05-28 08:23:09,0.00,0.16,0.00,28.31,31.25,33.93,14.25,46.44,1018.57,2013.02,3404.99,3024.94,3456.95,599.85,586.50,22.40,0000 0000 0000 0000 000000
2017-05-28 08:28:10,0.02,0.16,0.00,28.30,31.26,33.93,14.23,46.31,1018.57,2013.00,3404.87,3024.58,3456.45,600.25,586.92,22.45,0000 0000 0000 0000 000000
2017-05-28 08:33:12,0.02,0.16,0.00,28.32,31.27,33.99,14.23,46.48,1018.58,2013.00,3404.18,3024.07,3456.04,600.18,586.98,22.50,0000 0000 0000 0000 000000
2017-05-28 08:38:13,0.00,0.16,0.00,28.32,31.29,33.95,14.18,46.38,1018.58,2013.00,3404.00,3024.00,3456.00,600.07,586.66,22.55,0000 0000 0000 0000 000000
2017-05-28 08:43:14,0.00,0.16,0.00,28.32,31.30,33.95,14.19,46.38,1018.58,2013.00,3404.00,3024.00,3455.99,599.91,586.63,22.60,0000 0000 0000 0000 000000
2017-05-28 08:48:15,0.00,0.16,0.00,28.32,31.31,33.98,14.23,46.42,1018.59,2013.00,3403.85,3023.98,3455.88,599.77,586.51,22.65,0000 0000 0000 0000 000000
2017-05-28 08:53:16,0.01,0.16,0.00,28.32,31.32,33.98,14.20,46.44,1018.59,2012.99,3403.44,3023.96,3455.57,600.20,586.80,22.70,0000 0000 0000 0000 000000
2017-05-28 08:58:17,0.01,0.16,0.00,28.32,31.32,33.97,14.20,46.39,1018.60,2012.98,3403.03,3023.82,3455.08,600.01,586.74,22.75,0000 0000 0000 0000 000000
2017-05-28 09:03:19,0.01,0.17,0.00,28.32,31.34,33.99,14.17,46.39,1018.61,2012.97,3403.00,3023.29,3455.00,599.91,586.51,22.80,0000 0000 0000 0000 000000
2017-05-28 09:08:20,0.00,0.17,0.00,28.32,31.35,34.00,14.14,46.40,1018.73,2012.95,3402.95,3023.03,3455.00,599.90,586.59,22.85,0000 0000 0000 0000 000000
2017-05-28 09:13:21,0.00,0.17,0.00,28.31,31.35,34.01,14.19,46.33,1018.85,2012.90,3402.62,3023.00,3454.96,600.13,587.00,22.90,0000 0000 0000 0000 000000
2017-05-28 09:18:22,0.01,0.17,0.00,28.30,31.35,34.01,14.16,46.32,1018.93,2012.79,3402.09,3023.00,3454.75,599.87,586.80,22.95,0000 0000 0000 0000 000000
2017-05-28 09:23:24,0.00,0.17,0.00,28.30,31.36,34.01,14.24,46.37,1019.02,2012.83,3402.01,3022.98,3454.48,600.26,587.16,23.00,0000 0000 0000 0000 000000
2017-05-28 09:28:25,-0.01,0.17,0.00,28.30,31.37,34.03,14.23,46.40,1019.04,2012.60,3402.00,3022.88,3454.07,599.79,586.80,23.05,0000 0000 0000 0000 000000
2017-05-28 09:33:26,0.01,0.17,0.00,28.30,31.37,34.02,14.21,46.46,1019.06,2012.40,3401.89,3022.35,3454.00,600.12,587.08,23.10,0000 0000 0000 0000 000000
2017-05-28 09:38:28,0.01,0.17,0.00,28.30,31.37,34.05,14.21,46.39,1019.06,2012.37,3401.46,3022.12,3454.00,600.17,587.22,23.15,0000 0000 0000 0000 000000
2017-05-28 09:43:29,0.00,0.17,0.00,28.28,31.37,34.04,14.19,46.35,1019.06,2012.40,3401.14,3022.08,3453.99,600.03,587.01,23.20,0000 0000 0000 0000 000000
2017-05-28 09:48:30,0.01,0.17,0.00,28.27,31.37,34.04,14.22,46.34,1019.06,2012.36,3401.01,3022.03,3453.95,600.02,587.05,23.25,0000 0000 0000 0000 000000
2017-05-28 09:53:31,-0.00,0.17,0.00,28.27,31.37,34.05,14.25,46.38,1019.07,2012.32,3401.00,3022.01,3453.69,600.13,587.14,23.30,0000 0000 0000 0000 000000
2017-05-28 09:58:32,0.00,0.17,0.00,28.27,31.37,34.05,14.18,46.27,1019.07,2012.33,3400.99,3022.00,3453.27,600.13,587.22,23.35,0000 0000 0000 0000 000000
2017-05-28 10:03:34,0.01,0.17,0.00,28.26,31.37,34.04,14.23,46.36,1019.09,2012.36,3400.98,3022.00,3453.15,599.96,586.98,23.40,0000 0000 0000 0000 000000
2017-05-28 10:08:35,0.01,0.17,0.00,28.25,31.37,34.02,14.16,46.29,1019.08,2012.40,3400.77,3022.00,3453.07,599.86,586.94,23.45,0000 0000 0000 0000 000000
2017-05-28 10:13:37,0.01,0.17,0.00,28.24,31.37,34.04,14.22,46.27,1019.07,2012.39,3400.13,3021.98,3453.01,600.06,587.20,23.50,0000 0000 0000 0000 000000
2017-05-28 10:18:38,0.01,0.17,0.00,28.22,31.37,34.04,14.19,46.27,1019.08,2012.43,3400.02,3021.96,3453.00,600.06,587.12,23.55,0000 0000 0000 0000 000000
2017-05-28 10:23:40,-0.01,0.17,0.00,28.22,31.37,34.06,14.37,46.37,1019.08,2012.37,3400.00,3021.86,3453.00,600.36,587.51,23.60,0000 0000 0000 0000 000000
2017-05-28 10:28:41,0.03,0.17,0.00,28.22,31.37,34.02,14.11,46.19,1019.10,2012.55,3400.00,3021.86,3452.99,599.78,586.93,23.65,0000 0000 0000 0000 000000
2017-05-28 10:33:42,-0.01,0.17,0.00,28.20,31.37,34.02,14.12,46.23,1019.29,2012.45,3399.99,3021.65,3452.97,599.64,586.95,23.70,0000 0000 0000 0000 000000
2017-05-28 10:38:44,0.01,0.17,0.00,28.20,31.37,34.02,14.22,46.24,1019.47,2012.41,3399.94,3021.33,3452.86,600.11,587.55,23.75,0000 0000 0000 0000 000000
2017-05-28 10:43:45,0.01,0.17,0.00,28.18,31.37,34.03,14.20,46.27,1019.51,2012.25,3399.70,3021.04,3452.42,599.98,587.50,23.80,0000 0000 0000 0000 000000
2017-05-28 10:48:46,0.02,0.17,0.00,28.17,31.36,34.02,14.17,46.31,1019.54,2012.38,3399.27,3021.04,3452.27,600.03,587.57,23.85,0000 0000 0000 0000 000000
2017-05-28 10:53:47,-0.01,0.17,0.00,28.17,31.35,34.01,14.23,46.31,1019.54,2012.34,3399.11,3021.01,3452.11,600.13,587.68,23.90,0000 0000 0000 0000 000000
2017-05-28 10:58:48,0.02,0.17,0.00,28.14,31.35,34.00,14.17,46.30,1019.55,2012.45,3399.03,3021.00,3452.06,600.00,587.48,23.95,0000 0000 0000 0000 000000
2017-05-28 11:03:49,0.01,0.17,0.00,28.12,31.35,34.03,14.29,46.43,1019.52,2012.51,3399.01,3021.01,3452.03,600.36,587.87,24.00,0000 0000 0000 0000 000000
2017-05-28 11:08:50,-0.00,0.17,0.00,28.10,31.34,34.02,14.17,46.29,1019.53,2012.67,3399.00,3021.00,3452.01,599.89,587.52,24.05,0000 0000 0000 0000 000000
2017-05-28 11:13:52,0.02,0.17,0.00,28.09,31.32,33.99,14.26,46.29,1019.55,2012.77,3399.00,3021.00,3452.01,600.18,587.84,24.10,0000 0000 0000 0000 000000
2017-05-28 11:18:53,0.00,0.17,0.00,28.08,31.32,34.00,14.25,46.31,1019.55,2012.87,3399.00,3021.00,3452.02,600.06,587.70,24.15,0000 0000 0000 0000 000000
2017-05-28 11:23:54,0.01,0.17,0.00,28.07,31.32,33.99,14.21,46.25,1019.55,2012.91,3398.99,3021.00,3452.00,600.05,587.78,24.21,0000 0000 0000 0000 000000
2017-05-28 11:28:55,-0.00,0.17,0.00,28.05,31.30,33.99,14.18,46.19,1019.55,2012.87,3398.95,3021.00,3452.00,600.15,587.89,24.26,0000 0000 0000 0000 000000
2017-05-28 11:33:56,0.01,0.17,0.00,28.02,31.30,33.97,14.26,46.28,1019.55,2012.92,3398.82,3021.00,3452.00,600.17,587.96,24.31,0000 0000 0000 0000 000000
2017-05-28 11:38:58,0.00,0.17,0.00,28.00,31.29,33.95,14.16,46.21,1019.54,2012.97,3398.86,3021.00,3452.00,600.06,587.90,24.36,0000 0000 0000 0000 000000
2017-05-28 11:43:59,0.00,0.17,0.00,27.98,31.27,33.93,14.27,46.26,1019.54,2012.98,3398.65,3021.00,3452.00,599.85,587.95,24.41,0000 0000 0000 0000 000000
2017-05-28 11:49:00,0.00,0.17,0.00,27.96,31.27,33.92,14.09,46.17,1019.55,2012.99,3398.32,3021.00,3452.00,599.49,587.42,24.46,0000 0000 0000 0000 000000
2017-05-28 11:54:02,0.00,0.17,0.00,27.95,31.25,33.93,14.31,46.28,1019.55,2012.99,3398.27,3021.00,3452.00,600.19,587.98,24.51,0000 0000 0000 0000 000000
2017-05-28 11:59:03,-0.00,0.17,0.00,27.92,31.25,33.92,14.28,46.27,1019.55,2012.99,3398.46,3021.00,3452.00,600.30,588.29,24.56,0000 0000 0000 0000 000000
2017-05-28 12:04:04,0.00,0.17,0.00,27.90,31.23,33.91,14.17,46.18,1019.55,2012.99,3398.31,3021.00,3452.00,599.71,587.76,24.61,0000 0000 0000 0000 000000
2017-05-28 12:09:05,0.00,0.17,0.00,27.89,31.22,33.89,14.14,46.21,1019.55,2012.99,3398.05,3021.00,3452.00,599.69,587.82,24.66,0000 0000 0000 0000 000000
2017-05-28 12:14:07,0.00,0.17,0.00,27.87,31.21,33.87,14.21,46.26,1019.55,2013.00,3398.02,3021.00,3452.00,599.87,587.90,24.71,0000 0000 0000 0000 000000
2017-05-28 12:19:08,0.00,0.17,0.00,27.86,31.20,33.88,14.25,46.33,1019.55,2013.00,3398.01,3021.00,3452.00,600.13,588.21,24.76,0000 0000 0000 0000 000000
2017-05-28 12:24:08,0.00,0.17,0.00,27.84,31.18,33.85,14.24,46.17,1019.55,2013.00,3398.01,3021.00,3452.00,599.93,588.08,24.81,0000 0000 0000 0000 000000
2017-05-28 12:29:10,0.00,0.17,0.00,27.81,31.17,33.84,14.18,46.26,1019.55,2013.01,3398.00,3021.00,3452.00,599.64,587.85,24.86,0000 0000 0000 0000 000000
2017-05-28 12:34:11,0.00,0.18,0.00,27.79,31.16,33.80,14.10,46.13,1019.56,2013.06,3398.00,3021.00,3452.00,599.47,587.77,24.91,0000 0000 0000 0000 000000
2017-05-28 12:39:12,0.01,0.18,0.00,27.77,31.15,33.82,14.20,46.26,1019.55,2013.22,3398.00,3021.00,3452.01,599.79,588.05,24.96,0000 0000 0000 0000 000000
2017-05-28 12:44:13,0.02,0.18,0.00,27.75,31.13,33.80,14.20,46.18,1019.55,2013.38,3398.01,3021.04,3452.00,599.85,588.05,25.01,0000 0000 0000 0000 000000
2017-05-28 12:49:15,0.01,0.18,0.00,27.73,31.12,33.79,14.32,46.28,1019.54,2013.49,3398.00,3021.02,3452.00,599.96,588.36,25.06,0000 0000 0000 0000 000000
2017-05-28 12:54:16,0.01,0.18,0.00,27.71,31.10,33.77,14.30,46.39,1019.54,2013.72,3398.00,3021.04,3452.01,600.21,588.60,25.11,0000 0000 0000 0000 000000